Retour au catalogue

STARLINK-30856

ActifCommunicationsVLEO
NORAD 58725·PAYLOAD·🇺🇸 United States

Lancé Jan 3, 2024 depuis Vandenberg Space Force Base

Loading…

Prochains Passages (prochaines 24 heures)

TLE

FraisSource: CelesTrak SupGP

Époque: Sep 14, 2026, 20:49 UTC

1 58725C 24002W   26257.86784722 -.00003359  00000+0 -10196-3 0  2579
2 58725  53.1580  69.9826 0001266  87.8147  25.9132 15.33540347    19

Suivez STARLINK-30856 en temps réel avec AllMySat

Download on the App Store